OBJECT AS, 69020

Orbit data source: Space-Track

You're viewing an Uncataloged Satellite

Recently launched and/or uncataloged satellites may have evolving metadata. Metadata may include but not limited to: Owner, Maufacturer, Bus, Motor, and Mission.

OBJECT AS, 69020 is a satellite in SSO that was launched on Sun, 03 May 2026 UTC launched from the Air Force Western Test Range (AFWTR). Unknown objects in Earth's orbit typically refer to objects detected orbiting the Earth but have not yet been identified or cataloged. These objects could be anything from previously untracked satellites, spent rocket stages, debris from satellite collisions, or even natural meteoroids temporarily captured by Earth's gravity.

Loading next visibility...
Identifier
69020, 2026-100AS
Orbit
SSO
Country
Flag of TBDTBD
Related business
None
Manufacturer
Unknown
Mission
Operational spacecraft
Bus & Motor
Unknown
Mass
Unknown
Launch date (UTC)
2026-05-03 (1 week ago)
Launch vehicle
Unknown
Launch site
Air Force Western Test Range (AFWTR)
Object type
Unknown
Shape & HBR
Unknown
Radar Cross Section
RCS unknown

Expand to show TLE details & history
Last TLE update: 8 hours ago

TLE from 8 hours ago
0 OBJECT AS
1 69020U 26100AS  26130.18247551  .00004696  00000-0  22484-3 0  9999
2 69020  97.4075  28.6789 0006077 106.9170 253.2731 15.19414312  1033
Epoch: 2026-05-10T04:22Z
TLE epoch observation values (Epoch: 2026-05-10T04:22:45.884Z)
Latitude
-0.00004°
Longitude
94.9985°
Altitude
511.906 km
Speed
7.607 km/s
True Right ascension
01h 54m 42s
True Declination
0° 00' 00"
Sunlit
Object was in daylight at epoch
Visualization orbit readout
Latitude
Unknown
Longitude
Unknown
Altitude
Unknown
Speed
Unknown
Apparent Right ascension
Unknown
Apparent Declination
Unknown
Sunlit
N/A
Visualization observer readout
Local Sidereal Time
20:32:24
Azimuth
Unknown
Elevation
Unknown
Doppler factor
Unknown
Orbital elements
Apogee altitude
508.759 km
Perigee altitude
500.394 km
Semi-major axis
6,882.713 km
Eccentricity
0.00061
Inclination
97.4075°
RAAN
28.6789°
Arg. of periapsis
106.917°
True anomaly
253.20642°
Mean anomaly
253.2731°
Eccentric anomaly
253.23976°
Mean motion
3.80105 °/min
Orbital period
94.71 mins
BSTAR
0.00022484
Loading maneuver chart data...
Computing Atmospheric mass density...
Loading historical data...
Loading historical data...
Loading historical data...
Loading historical data...
Loading historical data...
Loading historical data...
Loading historical data...

Documentation

Showing up to 5 results
|